Regional Weather Roundup
Issued by NWS Sterling, VA

Home | Current Version | Previous Version | Text Only | Print | Product List | Glossary On
Versions: 1 2 3 4 5 6 7 8 9 10 11 12 13 14 15 16 17 18 19 20 21 22 23 24 25 26 27 28 29 30 31 32 33 34 35 36 37 38 39 40 41 42 43 44 45 46 47 48 49 50
909
ASUS41 KLWX 291310
RWRLWX

REGIONAL WEATHER ROUNDUP
NATIONAL WEATHER SERVICE BALTIMORE MD/WASHINGTON DC
900 AM EDT THU SEP 29 2016

Note: "FAIR" indicates few or no clouds below 12,000 feet
with no significant weather and/or obstructions to visibility.
 TC=TEMPERATURE CELSIUS

 * =Non NWS site. Station does not report precipitation (e.g. rain,
    snow, etc.), thunder, or fog.

DCZ001-MDZ009-015-VAZ040>042-051-053>054-291400-
WASHINGTON METRO

CITY           SKY/WX    TMP DP  RH WIND       PRES   REMARKS
WASHINGTON NAT LGT RAIN  70  68  93 E10       30.11R
DULLES         CLOUDY    67  64  90 E15G23    30.10R FOG
ANDREWS AFB    CLOUDY    68  66  94 E13G20    30.10R
FT BELVOIR     CLOUDY    68  66  93 VRB2      30.10R
QUANTICO       CLOUDY    71  67  87 E12       30.09R
COLLEGE PARK*  CLOUDY    64  64 100 NE6       30.13R
LEESBURG*      CLOUDY    66  66 100 E9G16     30.12R
MANASSAS*      CLOUDY    68  66  94 E7        30.09R
GAITHERSBURG*  CLOUDY    64  61  88 E5        30.18R

$$

MDZ006>007-011-014-291400-
BALTIMORE METRO

CITY           SKY/WX    TMP DP  RH WIND       PRES   REMARKS
BWI AIRPORT    HVY RAIN  65  64  97 E20       30.15S VSB 1
MD SCIENCE CTR   N/A     65  63  93 MISG      30.18R
MARTIN STATE   HVY RAIN  66  66 100 E15G21    30.17R
ANNAPOLIS      LGT RAIN  70  66  87 E22G29    30.13R
FORT MEADE*    CLOUDY    64  63  94 E15G22    30.15F

$$

MDZ012-015-019>023-291400-
MARYLAND EASTERN SHORE

CITY           SKY/WX    TMP DP  RH WIND       PRES   REMARKS
OCEAN CITY     RAIN     N/A N/A N/A E28G39    30.15R
SALISBURY      LGT RAIN  69  67  93 E16       30.14R
BAY BRIDGE AP* LGT RAIN  68  66  94 MISG      30.14R
CAMBRIDGE*     CLOUDY    68  64  88 E14G24    30.13R
EASTON*        CLOUDY    68  66  94 E12G18    30.18R FOG

$$

MDZ017>025-291400-
SOUTHERN MARYLAND

CITY           SKY/WX    TMP DP  RH WIND       PRES   REMARKS
PATUXENT RIVER LGT RAIN  71  68  90 E18G28    30.09R
ST INIGOES     CLOUDY    72  69  90 E15       30.08R
LEONARDTOWN*   CLOUDY    70  66  88 E10G20    30.10F

$$

MDZ003>005-291400-
NORTH CENTRAL MARYLAND

CITY           SKY/WX    TMP DP  RH WIND       PRES   REMARKS
FREDERICK*     CLOUDY    66  66 100 E12G22    30.15R
HAGERSTOWN APT CLOUDY    65  59  81 E14G22    30.13R

$$

MDZ501>502-291400-
WESTERN MARYLAND

CITY           SKY/WX    TMP DP  RH WIND       PRES   REMARKS
OAKLAND*       CLOUDY    52  52 100 E13G21    30.12R FOG
CUMBERLAND*    CLOUDY    59  59 100 CALM      30.16R

$$

VAZ025>031-291400-
SHENANDOAH VALLEY

CITY           SKY/WX    TMP DP  RH WIND       PRES   REMARKS
WINCHESTER*    DRIZZLE   64  64 100 E8          N/A
FRONT ROYAL*   CLOUDY    64  64 100 CALM      30.08R
LURAY*         LGT RAIN N/A N/A N/A N5        30.07R
NEW MARKET*    CLOUDY   N/A N/A N/A CALM      30.06R
STAUNTON*      CLOUDY    63  63  99 CALM      30.09R FOG
WAYNESBORO*    CLOUDY    63  62  96 MISG      30.08R

$$

WVZ021-048>050-054>055-291400-
EASTERN WEST VIRGINIA PANHANDLE

CITY           SKY/WX    TMP DP  RH WIND       PRES   REMARKS
MARTINSBURG    LGT RAIN  61  60  97 N5        30.12R
PETERSBURG*    DRIZZLE   62  60  94 NW5       30.09R

$$

VAZ036>039-050-291400-
CENTRAL FOOTHILLS

CITY           SKY/WX    TMP DP  RH WIND       PRES   REMARKS
CHARLOTTESVILL CLOUDY    70  65  84 E6        30.06R HAZE
CULPEPER*      CLOUDY    69  68  98 CALM      30.10R
ORANGE*          N/A     68  68 100 NE7       30.09R
GORDONSVILLE*  CLOUDY    68  68 100 E5        30.06R
WARRENTON*     CLOUDY    69  64  84 E14G20    30.07S

$$

VAZ055>057-291400-
NORTH AND CENTRAL PIEDMONT

CITY           SKY/WX    TMP DP  RH WIND       PRES   REMARKS
FREDERICKSBRG* CLOUDY    69  69 100 E10       30.07R
STAFFORD*      CLOUDY    69  68  99 E10G17    30.12R

$$

NCZ024-NYZ072-PAZ021-071-VAZ022-071-291400-
OTHER REGIONAL OBSERVATIONS

CITY           SKY/WX    TMP DP  RH WIND       PRES   REMARKS
NEW YORK CITY  CLOUDY    60  52  74 E16G23    30.35S
PHILADELPHIA   DRIZZLE   64  61  90 E16G28    30.24R FOG
PITTSBURGH     CLOUDY    59  59 100 E10       30.10R
ROANOKE        LGT RAIN  65  64  97 E5        30.05R FOG
RICHMOND       LGT RAIN  68  67  96 NE7       30.05R
RALEIGH        PTSUNNY   66  65  96 CALM      30.02R

$$

ANZ530>537-291400-
MARINE OBSERVATIONS

STATION/POSITION TIME  TEMP    WIND        PRES
                       AIR SEA DIR/SP/G
                 (UTC) (F)     (DEG/KT/KT) (MB)
THOMAS PT LIGHT  1300   69 73   90/ 28/ 32 1020.7R
BALT KEY BRIDGE  1248   66      70/ 14/ 18 1021.2R
COVE POINT       1248          120/ 21/ 26 1019.7R
LEWISETTA        1248   72 72  110/ 25/ 29 1017.9S
SOLOMONS ISLAND  1242   71 74   80/ 19/ 23   N/A
PINEY POINT      1248          110/ 22/ 25   N/A

$$





USA.gov is the U.S. government's official web portal to all federal, state and local government web resources and services.